Location: B�hl
(48.6968°N, 8.1352°E)
Time: 00:28:51
(UTC+00:00)

Meteor 1-11 Rocket - Pass Details

Date: 08 March 2021
Orbit: 831 x 916 km, 81.2° (Epoch: 14 April)

Event Time Altitude Azimuth Distance (km) Brightness Sun altitude
Rises 18:58:08 0° 193° (SSW) 3,442 6.9 -16.6°
Reaches altitude 10° 19:00:34 10° 194° (SSW) 2,496 6.2 -16.9°
Maximum altitude 19:06:14 81° 281° (W) 867 3.8 -17.9°
Drops below altitude 10° 19:11:50 10° 10° (N) 2,466 6.2 -18.8°
Sets 19:14:15 0° 12° (NNE) 3,398 6.9 -19.1°
